TimeEST,TemperatureF,Dew PointF,Humidity,Sea Level PressureIn,VisibilityMPH,Wind Direction,Wind SpeedMPH,Gust SpeedMPH,PrecipitationIn,Events,Conditions,WindDirDegrees,DateUTC
12:58 AM,-3.5,-4.7,94,30.24,10.0,SSW,5.8,-,N/A,,Clear,210,2014-01-22 05:58:00
1:58 AM,-3.5,-5.3,92,30.24,10.0,SW,6.9,-,N/A,,Clear,230,2014-01-22 06:58:00
2:58 AM,-3.6,-5.3,93,30.23,10.0,SSW,4.6,-,N/A,,Clear,210,2014-01-22 07:58:00
3:58 AM,-5.3,-7.4,90,30.20,10.0,SW,3.5,-,N/A,,Clear,220,2014-01-22 08:58:00
4:58 AM,-4.9,-7.2,90,30.17,10.0,SSE,4.6,-,N/A,,Clear,160,2014-01-22 09:58:00
5:58 AM,-6.3,-8.7,90,30.17,10.0,SSW,5.8,-,N/A,,Clear,210,2014-01-22 10:58:00
6:58 AM,-4.2,-6.2,91,30.15,10.0,South,4.6,-,N/A,,Overcast,180,2014-01-22 11:58:00
7:58 AM,-0.2,-1.7,94,30.14,10.0,SSE,5.8,-,N/A,,Overcast,160,2014-01-22 12:58:00
8:58 AM,2.3,1.0,94,30.11,10.0,South,10.4,-,N/A,,Overcast,180,2014-01-22 13:58:00
9:58 AM,4.5,3.6,96,30.13,10.0,SSW,10.4,-,N/A,,Mostly Cloudy,210,2014-01-22 14:58:00
10:30 AM,5.0,5.0,100,30.05,10.0,South,11.5,-,N/A,,Overcast,190,2014-01-22 15:30:00
10:58 AM,7.2,6.1,95,30.12,10.0,SSW,13.8,-,N/A,,Mostly Cloudy,200,2014-01-22 15:58:00
11:58 AM,9.5,5.4,83,30.09,10.0,SSW,15.0,-,N/A,,Mostly Cloudy,210,2014-01-22 16:58:00
12:58 PM,10.8,4.1,75,30.04,10.0,SSW,15.0,-,N/A,,Mostly Cloudy,210,2014-01-22 17:58:00
1:29 PM,10.4,5.0,79,29.95,10.0,SSW,16.1,-,N/A,Snow,Light Snow,210,2014-01-22 18:29:00
1:44 PM,10.4,6.8,85,29.94,4.0,SW,13.8,-,N/A,Snow,Light Snow,220,2014-01-22 18:44:00
1:47 PM,10.4,6.8,85,29.94,4.0,SW,16.1,-,N/A,Snow,Light Snow,230,2014-01-22 18:47:00
1:52 PM,10.4,6.8,85,29.94,3.0,SW,12.7,-,N/A,Snow,Light Snow,220,2014-01-22 18:52:00
1:58 PM,11.1,6.8,83,30.01,3.0,SW,12.7,-,0.00,Snow,Light Snow,220,2014-01-22 18:58:00
2:03 PM,10.4,6.8,85,29.93,4.0,SSW,15.0,-,N/A,Snow,Light Snow,210,2014-01-22 19:03:00
2:10 PM,10.4,6.8,85,29.93,5.0,SW,16.1,-,N/A,Snow,Light Snow,220,2014-01-22 19:10:00
2:15 PM,10.4,6.8,85,29.93,4.0,SW,16.1,-,N/A,Snow,Light Snow,230,2014-01-22 19:15:00
2:20 PM,10.4,8.6,92,29.93,5.0,SW,16.1,-,N/A,Snow,Light Snow,220,2014-01-22 19:20:00
2:29 PM,10.4,8.6,92,29.93,4.0,SW,16.1,-,N/A,Snow,Light Snow,220,2014-01-22 19:29:00
2:36 PM,10.4,8.6,92,29.92,5.0,SW,16.1,-,N/A,Snow,Light Snow,220,2014-01-22 19:36:00
2:41 PM,10.4,8.6,92,29.92,4.0,SW,17.3,-,N/A,Snow,Light Snow,220,2014-01-22 19:41:00
2:51 PM,12.2,6.8,79,29.92,5.0,SW,17.3,-,N/A,Snow,Light Snow,220,2014-01-22 19:51:00
2:58 PM,11.3,7.5,85,29.99,5.0,SW,15.0,-,0.00,Snow,Light Snow,220,2014-01-22 19:58:00
3:51 PM,12.2,8.6,85,29.92,7.0,SW,15.0,-,N/A,Snow,Light Snow,230,2014-01-22 20:51:00
3:58 PM,12.2,9.5,89,29.99,6.0,SW,17.3,-,0.00,Snow,Light Snow,230,2014-01-22 20:58:00
4:52 PM,12.2,10.4,92,29.93,8.0,SW,12.7,-,N/A,Snow,Light Snow,230,2014-01-22 21:52:00
4:58 PM,13.1,11.3,93,29.99,7.0,SW,12.7,-,0.00,Snow,Light Snow,230,2014-01-22 21:58:00
5:55 PM,13.6,12.2,94,29.99,10.0,SSW,10.4,-,0.00,,Overcast,210,2014-01-22 22:55:00
6:15 PM,14.0,12.2,93,29.93,1.0,SSW,10.4,-,N/A,Snow,Light Snow,210,2014-01-22 23:15:00
6:58 PM,14.5,14.4,99,30.01,3.0,SW,13.8,-,0.00,Snow,Light Snow,230,2014-01-22 23:58:00
7:03 PM,14.0,14.0,100,29.94,3.0,SW,13.8,-,N/A,Snow,Light Snow,220,2014-01-23 00:03:00
7:25 PM,15.8,15.8,100,29.93,1.8,SW,12.7,-,N/A,Snow,Light Snow,230,2014-01-23 00:25:00
7:58 PM,15.8,15.3,98,29.99,2.0,West,23.0,28.8,0.00,Snow,Light Snow,270,2014-01-23 00:58:00
8:38 PM,14.0,12.2,93,29.95,1.5,WNW,19.6,-,N/A,Snow,Light Snow,300,2014-01-23 01:38:00
8:58 PM,12.0,9.7,90,30.02,2.0,WNW,23.0,-,0.00,Snow,Light Snow,300,2014-01-23 01:58:00
9:54 PM,10.4,8.6,92,29.99,4.0,WNW,20.7,25.3,N/A,,Overcast,290,2014-01-23 02:54:00
10:58 PM,7.7,4.1,85,30.09,10.0,WNW,15.0,-,0.00,,Scattered Clouds,290,2014-01-23 03:58:00
11:13 PM,6.8,3.2,85,30.02,10.0,WNW,12.7,-,N/A,,Mostly Cloudy,290,2014-01-23 04:13:00
11:28 PM,6.8,3.2,85,30.03,10.0,WNW,15.0,-,N/A,,Mostly Cloudy,290,2014-01-23 04:28:00
11:33 PM,6.8,3.2,85,30.03,10.0,WNW,16.1,-,N/A,,Mostly Cloudy,290,2014-01-23 04:33:00
11:38 PM,6.8,3.2,85,30.04,10.0,WNW,15.0,-,N/A,,Scattered Clouds,290,2014-01-23 04:38:00
11:58 PM,6.4,3.0,86,30.12,10.0,WNW,13.8,-,N/A,,Scattered Clouds,300,2014-01-23 04:58:00